Weather History for KGUY - July, 2013

Change the Weather History Date:

Tuesday, July 16, 2013

  Actual Average Record
Temperature  
Mean Temperature 68 °F 80 °F  
Max Temperature 75 °F 95 °F 105 °F (2000)
Min Temperature 61 °F 66 °F 60 °F (2014)
Degree Days  
Heating Degree Days 0 0  
Month to date heating degree days 0 0  
Since 1 June heating degree days 0 8  
Since 1 July heating degree days 0 0  
Cooling Degree Days 3 15  
Month to date cooling degree days 230 230  
Year to date cooling degree days 870 618  
Since 1 June cooling degree days 666 510  
Growing Degree Days 18 (Base 50)    
Moisture  
Dew Point 62 °F    
Average Humidity 83    
Maximum Humidity 97    
Minimum Humidity 68    
Precipitation  
Precipitation 0.13 in 0.09 in 0.45 in (2014)
Month to date precipitation 0.63 1.37  
Year to date precipitation 5.91 10.56  
Snow  
Snow 0.00 in - - ()
Month to date snowfall 0.0  
Since 1 June snowfall T  
Since 1 July snowfall 0.0  
Snow Depth 0.00 in    
Sea Level Pressure  
Sea Level Pressure 30.17 in    
Wind  
Wind Speed 8 mph (ESE)    
Max Wind Speed 22 mph    
Max Gust Speed 26 mph    
Visibility 9 miles    
Events Rain    
T = Trace of Precipitation, MM = Missing Value Source: NWS Daily Summary

Daily Weather History Graph

Daily Weather History Graph

Search for Another Location

Airport or City:

Trip Planner

Search our weather history database for the weather conditions in past years. The results will help you decide how hot, cold, wet, or windy it might be!

Date:

Astronomy

Jul. 16, 2013 Rise Set
Actual Time 6:39 AM CDT 9:03 PM CDT
Civil Twilight 6:10 AM CDT 9:33 PM CDT
Nautical Twilight 5:33 AM CDT 10:10 PM CDT
Astronomical Twilight 4:53 AM CDT 10:50 PM CDT
Moon 2:51 PM CDT (7/16) 1:06 AM CDT (7/16)
Length of Visible Light 15h 23m
Length of Day
14h 24m
First Quarter, 56% of the Moon is Illuminated
Jul 16
First Quarter
Jul 22
Full
Jul 29
Last Quarter
Aug 6
New
Aug 14
First Quarter

Hourly Weather History & Observations

Time (CDT) Temp. Dew Point Humidity Pressure Visibility Wind Dir Wind Speed Gust Speed Precip Events Conditions
12:53 AM 64.9 °F 59.0 °F 81% 30.07 in 10.0 mi SSE 5.8 mph - N/A   Overcast
1:53 AM 63.0 °F 59.0 °F 87% 30.08 in 10.0 mi Calm Calm - N/A   Scattered Clouds
2:50 AM 62.6 °F 59.0 °F 88% 30.18 in 10.0 mi Calm Calm - N/A   Mostly Cloudy
2:53 AM 63.0 °F 59.0 °F 87% 30.08 in 10.0 mi Calm Calm - N/A   Mostly Cloudy
3:17 AM 62.6 °F 59.0 °F 88% 30.18 in 10.0 mi Calm Calm - N/A   Scattered Clouds
3:53 AM 62.1 °F 60.1 °F 93% 30.08 in 10.0 mi SE 5.8 mph - N/A   Mostly Cloudy
4:12 AM 62.6 °F 60.8 °F 94% 30.18 in 10.0 mi SE 3.5 mph - N/A   Mostly Cloudy
4:17 AM 62.6 °F 60.8 °F 94% 30.18 in 10.0 mi Calm Calm - N/A   Mostly Cloudy
4:53 AM 61.0 °F 59.0 °F 93% 30.07 in 8.0 mi NE 4.6 mph - N/A   Partly Cloudy
5:53 AM 62.1 °F 60.1 °F 93% 30.09 in 9.0 mi East 5.8 mph - N/A   Mostly Cloudy
6:06 AM 62.6 °F 60.8 °F 94% 30.19 in 9.0 mi East 4.6 mph - N/A   Mostly Cloudy
6:53 AM 62.1 °F 60.1 °F 93% 30.09 in 10.0 mi East 3.5 mph - N/A   Overcast
7:10 AM 62.6 °F 60.8 °F 94% 30.20 in 6.0 mi ESE 5.8 mph - N/A   Overcast
7:39 AM 62.6 °F 60.8 °F 94% 30.22 in 7.0 mi East 6.9 mph - N/A   Overcast
7:53 AM 63.0 °F 60.1 °F 90% 30.12 in 10.0 mi East 5.8 mph - N/A   Overcast
8:27 AM 64.4 °F 60.8 °F 88% 30.22 in 10.0 mi East 5.8 mph - N/A   Overcast
8:53 AM 64.0 °F 61.0 °F 90% 30.13 in 10.0 mi East 8.1 mph - N/A   Overcast
9:53 AM 64.0 °F 61.0 °F 90% 30.13 in 10.0 mi Calm Calm - 0.00 in   Overcast
10:03 AM 64.4 °F 60.8 °F 88% 30.23 in 10.0 mi NE 3.5 mph - 0.00 in Rain Light Rain
10:28 AM 64.4 °F 62.6 °F 94% 30.23 in 10.0 mi NE 6.9 mph - 0.02 in Rain Light Rain
10:50 AM 66.2 °F 62.6 °F 88% 30.23 in 10.0 mi NE 8.1 mph - 0.03 in Rain Light Rain
10:53 AM 66.0 °F 62.1 °F 87% 30.13 in 10.0 mi NE 8.1 mph - 0.03 in Rain Light Rain
11:11 AM 66.2 °F 62.6 °F 88% 30.23 in 6.0 mi NE 6.9 mph - 0.01 in Rain Light Rain
11:20 AM 66.2 °F 62.6 °F 88% 30.23 in 10.0 mi NE 9.2 mph - 0.01 in Rain Light Rain
11:53 AM 66.9 °F 64.0 °F 90% 30.13 in 6.0 mi ENE 5.8 mph - 0.02 in Rain Rain
12:11 PM 66.2 °F 62.6 °F 88% 30.23 in 4.0 mi East 8.1 mph - 0.02 in Rain Light Rain
12:14 PM 66.2 °F 62.6 °F 88% 30.23 in 4.0 mi East 8.1 mph - 0.02 in Rain Light Rain
12:29 PM 66.2 °F 62.6 °F 88% 30.23 in 3.0 mi East 4.6 mph - 0.03 in Rain Light Rain
12:53 PM 66.0 °F 63.0 °F 90% 30.13 in 10.0 mi ENE 5.8 mph - 0.04 in   Overcast
12:57 PM 66.2 °F 62.6 °F 88% 30.23 in 4.0 mi East 4.6 mph - 0.00 in Rain Rain
1:07 PM 66.2 °F 64.4 °F 94% 30.22 in 2.5 mi South 6.9 mph - 0.03 in Rain Light Rain
1:10 PM 66.2 °F 64.4 °F 94% 30.22 in 4.0 mi SSE 10.4 mph - 0.04 in Rain Light Rain
1:53 PM 69.1 °F 62.1 °F 78% 30.12 in 10.0 mi SSE 18.4 mph 24.2 mph 0.04 in Rain Light Rain
2:53 PM 69.1 °F 63.0 °F 81% 30.12 in 8.0 mi SE 15.0 mph 21.9 mph 0.00 in Rain Light Rain
3:21 PM 68.0 °F 64.4 °F 88% 30.22 in 8.0 mi SE 11.5 mph - 0.00 in   Overcast
3:31 PM 69.8 °F 64.4 °F 83% 30.21 in 10.0 mi SE 10.4 mph - 0.00 in   Overcast
3:53 PM 70.0 °F 64.9 °F 84% 30.11 in 10.0 mi SE 12.7 mph 19.6 mph 0.00 in   Overcast
4:04 PM 69.8 °F 64.4 °F 83% 30.21 in 10.0 mi SE 13.8 mph - N/A   Overcast
4:12 PM 71.6 °F 64.4 °F 78% 30.21 in 10.0 mi SE 13.8 mph - N/A   Overcast
4:43 PM 71.6 °F 64.4 °F 78% 30.21 in 10.0 mi SE 13.8 mph 21.9 mph N/A   Overcast
4:53 PM 72.0 °F 64.0 °F 76% 30.11 in 10.0 mi SE 13.8 mph 20.7 mph N/A   Overcast
5:19 PM 73.4 °F 64.4 °F 73% 30.21 in 10.0 mi SSE 16.1 mph 24.2 mph N/A   Overcast
5:53 PM 73.9 °F 63.0 °F 68% 30.11 in 10.0 mi SE 17.3 mph 23.0 mph N/A   Mostly Cloudy
6:14 PM 75.2 °F 62.6 °F 65% 30.21 in 10.0 mi SSE 13.8 mph 23.0 mph N/A   Mostly Cloudy
6:53 PM 73.0 °F 63.0 °F 71% 30.11 in 10.0 mi SSE 12.7 mph 20.7 mph N/A   Clear
7:53 PM 73.9 °F 62.1 °F 66% 30.12 in 10.0 mi SE 10.4 mph 19.6 mph N/A   Partly Cloudy
8:53 PM 71.1 °F 61.0 °F 70% 30.14 in 10.0 mi SSE 15.0 mph 23.0 mph N/A   Clear
9:53 PM 68.0 °F 61.0 °F 78% 30.18 in 10.0 mi SSE 10.4 mph - N/A   Mostly Cloudy
10:53 PM 66.0 °F 60.1 °F 81% 30.22 in 10.0 mi SE 8.1 mph - N/A   Clear
11:53 PM 66.0 °F 61.0 °F 84% 30.22 in 10.0 mi ESE 8.1 mph - N/A   Overcast